Location: Marengo
(51.4813°N, 109.7825°W)
Time: 00:39:58
(UTC+00:00)

Envisat - Pass Details

Date: 01 February 2022
Orbit: 764 x 765 km, 98.2° (Epoch: 22 May)

Event Time Altitude Azimuth Distance (km) Brightness Sun altitude
Rises 10:34:39 0° 31° (NNE) 3,243 6.9 -40.3°
Reaches altitude 10° 10:38:49 10° 64° (ENE) 2,310 6.2 -39.7°
Maximum altitude 10:40:27 11° 83° (E) 2,207 6.0 -39.5°
Drops below altitude 10° 10:42:05 10° 102° (ESE) 2,305 6.0 -39.2°
Sets 10:46:13 0° 136° (SE) 3,224 6.5 -38.7°
